Wind_Speed
18 17 15 14 15 15 15 15 15 15 14 14 12 11 10 10 10 9 10 11 12 13 13 13 10 9 9 10 9 10 10 10 8 8 10 12 13 13 13 13 14 15 15 15 15 15 16 16 16 16 17 19 20 20 21 21 22 22 22 23 24 25 25 26 26 27 28 29 30 31 31 32 32 32 33 33 34 35 35 35 35 35 35 35 35 35
20 19 17 16 17 17 17 17 17 17 17 16 14 13 13 13 13 13 13 14 16 15 15 15 13 11 12 13 13 13 13 13 12 12 13 14 16 17 16 16 16 17 18 19 18 18 18 18 18 18 20 21 21 22 22 23 23 23 24 25 26 27 27 28 28 29 29 30 31 32 33 34 34 35 35 35 36 37 37 37 37 37 37 37 37 38
23 21 20 20 20 21 20 20 20 20 20 19 17 16 16 16 16 16 16 17 17 16 16 16 15 14 15 16 18 18 16 15 15 15 16 17 18 18 18 19 19 20 21 21 22 22 22 22 22 22 23 23 24 24 24 25 26 26 27 27 27 28 29 30 30 31 31 31 32 32 33 34 36 37 37 37 38 39 39 39 39 39 39 39 39 39
25 24 24 24 23 23 22 22 22 22 22 21 19 18 19 19 20 19 18 18 18 18 18 18 17 17 18 19 20 21 22 21 19 19 19 20 20 20 21 21 22 23 23 24 25 25 26 26 26 26 26 26 27 27 28 29 29 30 30 29 29 31 33 33 33 33 34 35 35 35 35 36 37 38 38 38 38 39 39 40 40 40 40 40 40 40
27 27 27 27 26 25 25 25 25 25 24 23 22 22 22 22 23 22 19 19 20 20 20 20 20 20 21 23 23 23 24 25 23 24 25 24 23 23 24 24 24 25 25 26 27 27 28 29 29 29 29 29 29 30 30 31 31 31 31 31 32 35 36 36 36 36 37 38 39 39 39 39 38 39 39 39 39 39 40 40 40 41 41 41 41 41
29 29 29 28 28 28 28 27 27 27 27 26 25 25 24 24 24 24 23 22 23 23 23 24 24 24 25 27 27 26 27 28 27 28 29 28 27 28 29 28 28 28 29 30 31 31 30 31 32 32 32 31 31 31 31 31 30 31 32 34 36 38 38 38 39 40 41 41 42 43 43 42 41 41 41 41 41 41 41 41 41 42 43 43 44 44
30 30 31 31 31 31 31 30 29 29 30 29 28 27 27 28 27 27 27 27 27 27 27 28 28 28 30 31 30 29 30 31 31 31 31 31 31 32 32 32 32 32 33 34 34 34 34 34 35 35 35 34 33 33 32 32 32 33 36 37 39 39 40 41 42 43 44 45 45 46 46 46 45 44 44 44 44 44 44 44 44 44 45 45 46 47
31 32 33 33 32 33 34 33 32 31 32 33 31 30 31 32 31 30 30 31 31 31 31 31 31 31 33 35 35 34 34 34 33 33 33 34 34 35 35 35 36 36 37 37 37 37 36 37 37 37 37 37 36 36 35 35 36 36 38 40 41 42 44 45 44 44 44 45 46 48 49 50 50 48 47 46 47 47 47 47 46 47 47 48 48 49
34 34 34 34 34 36 37 36 34 33 35 35 34 34 35 35 35 34 34 34 34 35 36 36 34 34 36 38 39 37 36 36 35 35 35 36 37 37 37 38 38 39 40 40 40 40 39 39 40 40 40 40 39 38 38 39 39 39 40 42 43 45 46 45 43 41 41 40 44 47 48 51 53 53 51 50 49 49 49 50 50 50 50 51 51 51
37 36 35 36 37 38 39 38 36 36 37 38 38 38 39 38 38 37 38 38 37 38 41 39 38 38 39 42 43 40 39 38 37 37 38 39 39 40 40 41 41 42 43 43 43 43 43 42 42 43 43 43 42 42 42 42 42 43 43 44 46 47 46 44 41 41 41 39 42 46 47 50 53 55 56 54 51 50 51 53 54 54 54 55 55 54
39 39 37 38 39 40 41 40 40 40 40 40 40 41 42 41 41 41 41 41 41 41 43 43 41 41 43 46 45 43 42 41 40 41 41 42 42 43 43 43 44 44 45 46 46 47 46 46 45 45 45 45 44 44 45 45 45 46 45 45 47 47 45 43 42 43 45 44 43 42 44 49 52 56 57 54 52 53 56 59 59 58 58 58 58 57
42 42 41 40 41 42 43 44 43 43 43 43 43 44 44 43 43 43 43 43 43 44 46 46 45 45 47 49 47 45 44 44 44 44 44 44 45 46 46 46 47 47 48 49 49 50 50 50 49 48 48 48 47 47 47 47 47 49 47 45 46 47 46 44 45 46 48 49 47 43 43 47 52 57 59 57 59 62 64 65 63 60 59 60 60 58
44 45 45 44 44 45 46 47 46 46 46 46 47 47 45 45 45 45 45 45 45 47 48 48 48 49 50 50 49 48 46 47 47 47 47 47 48 48 49 49 50 50 51 51 52 52 53 53 53 52 52 51 51 50 49 49 49 51 50 48 49 50 50 50 50 50 52 54 55 53 51 52 55 60 63 63 64 65 66 66 63 60 58 57 58 58
46 47 46 46 46 47 48 50 50 50 50 50 50 49 48 48 48 48 48 48 48 50 50 50 50 51 52 51 50 50 50 50 50 50 50 50 51 52 52 53 53 53 54 54 55 55 56 56 56 56 54 54 54 51 50 50 50 50 50 49 49 51 53 54 53 54 56 59 61 61 59 59 61 62 63 63 63 63 65 65 63 59 55 55 59 62
48 49 47 46 47 48 50 53 53 53 53 53 53 52 52 52 52 51 52 51 51 52 52 52 53 54 54 53 52 52 54 55 54 53 53 53 54 55 56 56 55 56 56 56 57 57 58 59 58 58 55 55 55 53 51 51 51 50 50 50 51 51 53 54 56 58 61 61 61 63 64 63 62 62 61 60 59 60 62 64 63 62 58 58 62 63
49 50 49 48 48 49 51 53 54 55 55 55 55 55 56 55 54 55 55 54 54 54 54 55 56 56 56 54 53 54 57 58 58 57 56 56 57 58 58 58 58 57 57 57 58 58 58 59 58 58 56 56 57 56 54 53 53 54 54 55 55 54 53 54 56 58 59 59 60 63 64 61 59 59 58 57 55 54 58 61 61 59 57 57 59 59
49 50 50 49 49 50 51 52 54 55 55 55 55 56 57 56 56 57 56 56 56 56 56 57 58 58 57 56 55 57 59 60 59 59 58 58 59 60 60 59 59 59 58 58 58 58 58 58 58 58 58 57 58 58 57 56 56 57 57 58 58 57 56 55 51 49 49 53 57 59 59 58 57 56 55 52 47 45 49 54 56 57 58 60 60 59
49 51 51 51 51 51 52 53 54 55 55 56 56 56 57 57 57 57 57 57 57 57 57 57 58 59 59 58 57 58 60 60 60 59 59 59 59 60 61 60 60 60 60 60 60 60 60 60 60 60 60 60 60 60 61 60 60 61 60 60 60 59 59 56 52 51 51 50 50 52 53 54 52 51 51 48 44 45 52 57 60 62 63 64 64 63
50 52 53 52 53 54 54 54 55 55 55 56 57 57 57 58 58 58 58 58 58 58 57 57 57 58 58 58 59 60 61 61 61 60 60 60 61 61 62 62 63 62 62 62 62 62 62 62 62 63 62 62 63 63 64 64 64 64 63 61 59 57 57 57 55 58 60 57 55 54 54 53 51 50 51 50 51 55 58 59 62 65 67 69 71 72
51 52 54 54 55 56 57 57 57 56 56 57 57 58 58 59 59 59 60 59 58 58 58 57 57 57 58 59 60 61 61 62 62 62 62 63 63 63 64 64 65 65 64 64 64 65 65 65 64 65 65 66 66 66 67 66 65 64 62 59 58 56 56 58 57 58 60 60 61 61 61 61 61 59 58 59 61 63 65 67 71 77 81 84 85 87
52 53 54 55 56 58 59 59 59 59 59 59 60 60 61 61 61 61 62 61 61 60 60 59 58 57 59 61 62 63 64 64 64 65 65 65 65 65 66 66 67 67 67 67 67 67 67 68 67 67 67 67 67 67 66 65 63 61 60 58 57 56 56 57 58 58 59 60 62 65 69 72 74 74 74 74 75 77 80 83 86 90 92 93 95 96
54 54 55 56 58 59 59 60 60 61 61 61 61 62 62 62 63 63 64 63 63 63 62 62 59 58 61 63 63 64 66 66 66 67 67 67 67 67 67 68 68 69 69 69 68 68 68 68 68 67 66 65 65 64 64 63 62 61 60 59 59 59 59 59 59 59 60 61 64 68 72 76 81 84 86 86 86 88 89 91 91 92 94 96 98 99
53 54 54 55 56 58 59 59 59 61 61 61 62 63 63 63 64 65 65 64 65 64 64 65 61 58 60 63 65 65 66 67 67 67 67 67 67 67 66 67 67 67 67 67 66 66 65 65 65 65 64 64 64 64 64 63 63 63 64 64 63 63 63 63 63 63 63 64 68 73 77 81 87 91 92 92 92 92 92 93 94 94 95 97 98 100
50 50 50 51 52 54 56 56 56 58 59 60 61 62 63 64 64 65 65 65 65 64 64 65 60 56 58 61 63 65 64 64 65 63 63 64 64 64 64 64 64 64 64 64 64 63 63 63 63 64 64 64 65 65 66 65 65 66 67 68 68 67 67 66 65 66 65 65 69 73 76 81 88 93 93 92 91 91 91 92 94 95 96 97 99 101
49 48 48 48 49 51 53 54 54 55 56 57 58 59 61 62 62 63 63 63 62 61 62 61 55 54 57 59 60 62 62 61 61 61 61 62 62 63 63 63 63 62 62 63 63 63 64 64 65 65 66 67 67 68 69 69 69 69 70 71 71 71 71 70 69 70 68 65 66 68 70 76 84 89 89 86 84 85 87 89 91 93 96 98 100 103
49 49 48 49 49 50 52 53 53 54 55 56 56 57 59 60 61 62 63 63 62 61 62 59 55 56 60 60 60 61 62 62 62 63 64 64 64 64 65 65 64 64 64 64 65 65 66 67 68 68 69 70 71 71 72 73 74 73 73 74 74 75 76 76 76 74 72 69 69 72 75 80 86 90 90 89 88 90 93 95 96 99 102 104 105 105
51 51 50 51 51 51 52 53 54 55 56 56 57 59 60 61 61 62 63 63 64 66 63 60 61 63 63 63 64 64 64 65 66 67 68 68 68 68 68 69 69 69 69 69 69 69 70 71 71 72 72 73 74 75 76 77 78 79 79 79 79 79 80 81 80 79 78 77 77 79 83 87 92 95 97 98 98 99 100 102 103 104 106 107 108 108
56 55 55 55 55 55 56 56 57 58 58 59 60 61 63 65 65 65 66 66 69 70 64 62 67 69 66 67 68 68 69 70 70 71 71 72 73 73 73 73 74 74 74 74 74 75 75 76 76 76 77 77 78 79 80 81 82 83 83 83 84 84 83 84 84 83 83 85 86 87 89 93 96 99 100 101 102 102 103 104 105 106 107 109 111 112
61 60 60 60 60 60 60 61 62 62 62 62 63 64 66 68 69 70 70 71 73 73 68 67 71 72 70 71 72 71 72 73 74 74 75 75 76 76 77 77 78 79 79 80 80 80 80 80 81 81 82 82 83 83 84 84 85 85 86 87 87 87 88 88 88 88 88 89 91 92 94 96 98 100 101 102 103 104 104 105 107 108 110 112 115 116
65 65 65 64 64 63 64 65 65 65 65 65 66 67 68 70 72 73 73 74 76 76 73 73 74 75 75 75 75 75 76 77 77 78 78 78 79 79 80 80 81 82 82 83 84 84 85 85 85 85 86 86 87 87 87 88 89 89 90 90 91 92 92 92 93 93 93 93 95 96 98 99 101 102 103 104 105 106 106 108 110 112 114 116 118 119
68 69 69 69 67 66 67 69 69 69 68 68 68 69 71 73 75 75 75 76 78 78 78 78 77 77 79 79 78 79 79 80 80 81 81 82 82 82 83 83 83 84 84 85 86 87 88 89 89 89 90 90 91 91 92 92 93 94 94 95 95 96 96 97 97 98 98 98 99 100 101 102 104 105 107 107 108 109 110 112 114 116 117 119 120 121
71 72 72 72 71 69 70 73 73 73 72 70 70 72 74 76 77 77 78 79 80 81 81 81 80 80 81 82 82 82 82 82 83 84 84 85 85 86 87 87 88 88 89 89 90 90 91 92 93 94 94 95 96 96 97 97 97 98 98 99 99 100 100 101 101 102 103 103 104 105 105 106 108 109 111 111 112 113 115 116 118 119 120 121 121 123
75 75 75 76 74 72 73 76 77 77 75 72 74 76 78 79 80 80 81 81 82 83 83 83 83 83 84 84 84 85 85 85 86 87 87 88 88 89 90 91 92 92 93 93 94 94 95 96 97 98 99 100 100 101 101 102 102 102 102 103 103 103 104 105 105 106 107 108 109 110 110 110 111 112 113 114 115 116 118 120 121 121 121 121 121 123
78 79 80 80 78 77 77 78 80 80 77 76 79 80 81 82 83 84 85 85 85 86 86 86 86 87 87 87 87 87 88 89 89 90 90 90 91 92 93 94 94 95 96 97 97 98 99 99 100 101 102 103 103 104 104 105 105 106 106 107 107 108 108 109 109 110 111 112 113 113 114 114 115 115 116 116 117 118 120 122 122 122 121 121 121 122
82 83 84 83 83 82 81 81 82 81 80 80 82 83 84 86 88 88 89 89 89 89 90 90 91 91 91 91 92 91 92 93 93 94 94 94 95 96 97 98 99 100 100 101 102 102 103 104 104 105 106 106 107 107 108 108 109 110 111 111 112 112 113 113 113 114 114 114 115 116 117 117 118 118 119 119 120 120 121 123 124 123 122 122 121 121
85 86 87 87 87 86 85 85 86 85 83 83 85 85 87 89 91 92 92 92 93 94 94 94 95 95 95 95 95 96 96 96 97 98 98 99 99 100 101 102 103 105 105 106 107 107 108 109 109 109 110 110 111 112 112 113 113 114 115 115 116 116 116 117 117 117 117 117 118 118 119 120 120 121 121 122 122 122 122 123 123 122 121 120 119 117
88 89 89 89 89 89 89 89 89 89 87 86 87 89 91 92 93 94 95 95 96 96 97 98 99 99 99 99 99 99 99 99 100 101 103 103 104 105 106 107 108 110 111 112 112 113 113 113 114 114 115 116 116 117 118 118 118 118 118 119 119 119 119 119 119 119 120 120 120 120 120 120 120 120 120 120 121 121 120 120 119 117 116 115 113 111
90 91 92 92 92 92 93 93 93 92 90 89 91 93 94 95 96 97 98 98 98 99 100 101 102 102 102 102 103 103 103 103 103 106 108 109 109 110 111 112 113 115 115 116 117 118 118 118 119 119 120 121 121 122 122 122 122 122 122 122 122 122 122 122 121 120 119 119 118 118 117 117 116 116 115 115 115 115 115 114 113 112 111 109 107 106
93 94 94 94 94 94 96 96 95 94 93 93 94 95 97 98 100 101 101 101 102 103 104 105 105 106 106 106 106 107 107 107 108 110 112 114 114 115 116 117 118 119 120 121 121 121 122 123 123 124 124 125 125 126 126 126 125 125 125 125 124 123 122 121 119 117 116 114 113 113 112 112 111 111 110 110 110 109 109 109 109 108 107 105 103 101
95 96 96 95 95 96 97 98 97 96 96 96 97 99 100 102 104 105 105 105 105 106 108 109 110 110 111 111 111 111 112 112 112 113 115 117 118 119 120 121 122 123 124 124 125 125 125 125 126 126 126 127 128 129 129 128 127 127 126 124 122 120 118 116 114 112 112 111 110 109 108 107 107 106 106 105 105 105 105 106 106 105 103 101 99 97
97 98 99 98 98 98 100 100 99 98 98 99 100 102 105 106 108 109 109 109 110 111 112 113 113 114 114 115 115 115 116 117 117 117 118 120 121 122 123 125 126 126 127 127 128 128 128 128 128 128 128 128 129 129 128 127 125 123 121 119 117 115 114 111 109 108 108 108 107 106 105 104 103 102 101 101 102 102 102 102 102 101 100 97 95 93
101 102 102 101 102 103 105 105 104 103 102 104 106 108 109 111 112 113 114 114 115 116 116 117 117 117 117 118 118 119 119 120 121 122 122 123 123 124 126 127 128 129 129 130 130 130 130 129 127 126 125 125 125 124 122 121 119 117 115 114 113 112 110 108 106 106 105 104 103 102 101 99 98 97 97 97 98 98 98 99 98 97 95 93 91 89
105 106 105 105 107 109 110 110 110 109 109 110 112 113 115 116 117 118 118 119 119 120 120 120 120 121 121 121 122 123 124 124 125 125 125 125 126 127 128 129 130 130 130 130 129 128 127 124 121 119 117 117 116 116 115 114 112 110 109 108 108 107 106 104 103 103 101 100 99 97 96 94 93 92 92 92 93 94 94 95 94 92 91 89 87 86
109 109 109 110 112 113 114 114 115 115 115 116 117 118 119 120 121 122 123 123 123 123 123 123 123 124 125 126 126 127 127 127 127 128 128 128 128 129 129 129 129 128 127 124 122 120 118 116 114 111 110 110 110 110 110 108 106 104 103 103 102 101 100 99 98 98 97 96 95 94 93 91 90 88 87 88 88 88 89 89 88 87 87 86 84 82
112 113 114 114 115 116 116 117 118 119 120 120 121 122 124 125 126 126 126 125 125 125 126 126 126 127 128 129 129 129 129 129 129 129 128 128 128 127 126 125 123 122 120 117 115 113 112 110 108 107 106 106 106 105 104 103 101 99 98 97 96 95 94 94 93 93 93 92 92 91 90 88 87 85 84 83 82 82 82 82 82 82 82 82 80 78
116 116 117 117 118 119 119 120 121 123 124 125 125 125 126 127 128 128 128 127 126 127 127 127 128 128 129 129 130 129 129 128 127 126 125 125 123 121 120 119 117 115 113 112 110 108 107 105 103 103 102 101 101 100 99 98 97 95 94 93 93 92 91 90 89 89 88 88 87 86 84 84 83 82 80 79 77 77 77 77 77 77 77 76 75 73
118 119 119 120 120 121 122 123 125 127 128 127 126 126 127 127 128 128 127 126 125 125 126 126 126 127 127 126 126 125 124 123 122 121 120 119 117 116 114 113 111 109 108 106 105 103 101 100 99 98 98 97 96 96 95 94 93 92 91 91 90 89 88 87 86 85 83 82 81 79 78 77 77 76 76 75 74 73 72 72 71 71 71 70 69 68
120 120 120 120 121 122 123 124 126 127 127 126 125 125 125 125 125 125 124 123 122 122 122 122 123 123 122 121 120 120 118 117 116 115 114 111 110 109 108 106 104 103 101 100 99 97 96 95 94 94 94 94 93 92 92 91 91 90 88 87 86 85 84 83 81 80 78 77 75 74 73 72 71 71 71 71 71 70 69 68 67 66 65 64 63 62
119 118 119 120 121 122 121 122 124 125 123 121 121 122 121 121 120 120 119 118 118 118 118 118 118 118 117 116 115 115 113 111 110 109 107 104 103 103 101 99 97 96 95 94 94 93 92 92 91 92 91 91 89 88 87 87 86 85 84 82 81 80 79 78 77 75 74 72 71 70 68 67 67 66 66 67 67 67 66 65 64 63 61 59 58 57
114 114 115 117 119 118 118 119 121 121 118 116 117 117 117 116 116 115 114 114 114 115 116 115 114 113 113 113 113 112 110 107 105 103 101 99 98 97 95 93 92 92 91 91 90 89 89 89 89 89 88 87 85 83 82 81 80 79 78 77 76 75 74 73 72 71 70 68 67 65 64 64 63 63 63 63 63 62 62 61 60 58 57 56 54 54
108 108 111 115 116 115 114 115 116 116 113 111 111 112 112 113 114 113 112 111 112 113 113 113 111 110 109 110 110 109 106 103 100 98 96 95 94 93 92 90 90 89 88 87 86 86 85 85 84 83 82 81 79 77 76 75 74 73 73 72 71 70 69 68 67 66 65 64 63 62 61 61 60 60 60 59 58 58 58 57 55 53 53 52 52 52
Wind_Direction
257 259 260 263 266 267 266 264 263 261 259 259 261 263 263 266 269 269 268 267 266 269 278 289 298 303 303 302 297 291 288 286 280 275 282 289 293 294 294 294 295 294 294 296 299 304 307 309 307 306 306 305 305 306 306 307 307 307 309 310 311 311 311 310 309 307 306 304 303 302 300 299 297 295 294 293 293 293 293 293 293 293 293 293 294 294
259 260 260 260 260 261 261 261 262 262 260 258 257 257 258 260 262 263 263 264 268 275 286 292 296 299 297 294 290 287 287 289 288 284 283 288 292 295 295 294 292 291 292 294 297 301 304 306 305 305 305 305 306 307 307 307 307 307 309 311 311 312 313 312 312 311 309 307 304 303 302 301 300 298 297 295 294 293 292 292 292 292 292 293 293 294
258 259 257 255 254 256 258 259 260 260 260 260 258 257 257 256 256 257 258 263 271 279 285 286 286 286 285 286 287 285 282 280 281 282 284 287 290 293 295 294 292 291 292 294 297 300 301 302 301 302 302 303 304 306 307 306 306 306 308 310 312 314 314 313 313 313 311 309 307 304 302 301 300 299 298 297 295 295 294 293 293 292 292 292 292 292
256 256 255 256 257 259 260 261 261 262 262 262 260 259 257 256 254 254 256 263 270 275 276 277 276 275 274 273 275 278 280 278 276 274 274 278 283 287 288 288 289 290 292 295 296 298 299 299 300 300 301 302 303 304 305 305 305 305 305 306 310 314 313 312 311 311 311 310 308 306 303 301 299 298 297 295 295 294 293 293 292 291 291 290 290 290
257 257 259 261 262 263 262 262 264 265 266 265 263 261 259 259 260 260 260 261 264 266 269 270 269 267 266 266 265 267 271 273 275 274 274 276 279 281 281 282 284 285 288 290 292 293 294 295 296 297 298 298 300 301 302 302 303 303 303 303 306 309 310 309 308 308 308 307 306 305 304 301 299 297 296 294 293 292 291 291 290 289 289 289 289 289
259 260 261 261 262 262 261 261 263 264 265 266 265 265 265 264 265 265 263 260 259 260 261 262 262 261 261 262 264 265 266 267 269 272 275 279 281 281 281 282 283 284 285 286 287 288 288 290 291 292 293 295 296 297 298 298 299 300 302 302 303 304 305 305 305 306 305 305 305 304 302 301 298 296 295 293 292 290 289 289 289 288 288 287 287 287
261 261 260 260 261 261 261 261 260 261 262 263 263 264 266 265 264 264 264 262 261 260 258 258 259 260 260 261 262 262 263 265 268 271 275 278 279 280 281 283 283 282 282 282 284 285 285 286 288 289 291 292 293 294 295 294 295 297 299 299 300 301 302 303 303 304 304 304 303 302 301 300 297 295 293 292 290 289 288 287 287 288 288 289 288 287
262 260 260 261 262 262 262 262 261 261 262 263 263 263 262 263 263 263 264 265 265 265 263 261 260 260 261 262 263 261 262 264 268 272 274 276 277 278 280 280 281 282 282 283 284 284 285 286 287 288 289 290 291 292 293 293 294 296 297 298 299 300 301 302 302 303 304 305 305 303 301 298 296 294 292 290 289 288 287 287 287 288 289 289 289 288
261 260 261 263 262 261 262 263 264 264 262 263 264 263 262 263 264 264 264 265 266 267 266 264 263 263 263 264 264 264 264 266 268 270 272 274 275 276 277 278 279 281 282 283 284 285 285 285 286 287 288 289 290 292 293 294 294 295 296 297 298 298 299 299 299 301 305 307 305 301 300 300 297 294 290 288 288 286 286 287 288 288 288 288 288 287
262 261 261 262 261 262 263 264 264 262 261 261 262 261 262 262 263 264 264 264 265 265 266 267 266 267 267 267 267 268 269 270 271 271 272 273 274 275 276 278 279 280 282 283 284 285 284 284 285 286 287 289 290 292 293 294 294 294 295 297 297 296 296 296 296 298 303 304 301 301 304 306 302 296 291 287 286 287 288 290 290 290 289 288 287 286
261 262 261 260 261 262 262 262 261 260 260 260 260 260 261 261 262 263 264 265 266 266 268 269 269 270 270 270 270 272 273 274 274 274 274 275 276 277 278 279 280 281 282 283 284 284 284 284 284 285 286 287 289 291 292 292 292 292 294 296 296 294 294 294 295 298 301 302 303 304 306 304 298 295 293 290 289 290 292 293 294 293 292 290 288 287
259 259 259 258 258 259 259 260 260 260 260 260 260 259 260 261 262 263 264 266 267 268 269 270 271 271 270 271 273 274 274 275 276 276 277 278 279 279 280 280 281 281 281 282 282 283 284 284 284 284 285 286 287 288 289 290 290 291 293 294 294 292 292 293 295 297 300 302 304 305 304 300 294 292 294 294 292 293 293 294 296 297 295 292 289 287
258 257 257 257 257 258 259 260 260 260 260 260 260 260 261 262 262 263 264 265 266 266 267 268 269 269 270 272 274 276 277 277 277 277 278 279 280 280 280 280 281 281 281 282 282 282 283 283 283 284 285 286 287 287 287 288 288 290 291 291 291 292 292 293 294 296 299 299 299 300 301 300 298 296 296 296 295 293 292 293 295 297 296 291 288 288
259 258 258 259 260 260 261 261 261 260 260 260 261 262 262 262 262 263 263 263 264 265 266 268 269 270 271 273 275 278 279 279 279 279 280 280 280 280 279 279 279 280 280 281 281 282 282 282 283 284 285 286 286 286 286 286 287 289 289 289 291 293 292 292 292 294 296 296 297 299 300 301 301 300 299 299 298 295 293 293 293 293 290 284 283 287
260 260 259 259 259 259 260 260 261 261 262 262 263 264 263 263 263 264 264 265 265 266 268 269 269 270 271 273 275 277 278 278 278 279 279 279 279 278 278 278 279 279 279 280 280 280 281 282 283 284 285 285 284 284 284 284 286 287 287 287 290 291 290 289 290 293 294 295 299 301 301 301 300 300 299 298 297 296 295 294 292 291 286 281 281 283
261 261 261 259 259 259 259 260 261 262 262 263 263 264 264 265 265 265 266 267 267 268 269 269 270 270 272 273 274 275 275 276 277 278 278 278 278 278 278 278 279 279 279 279 279 280 280 281 282 284 284 285 285 285 284 284 284 284 284 286 288 288 288 289 293 296 297 298 300 300 300 299 298 297 296 294 295 299 299 296 293 290 285 284 284 283
262 263 262 262 261 260 260 261 262 262 263 263 263 264 264 265 265 266 266 267 267 268 269 270 271 272 272 273 273 273 273 274 276 277 277 277 278 278 278 278 279 279 279 279 279 279 280 281 282 283 283 283 284 284 284 283 283 283 284 285 286 286 287 288 291 292 295 298 298 297 298 298 297 294 291 289 290 293 290 286 285 284 283 285 286 284
264 264 264 264 263 262 262 262 262 263 263 264 265 265 266 266 266 266 266 266 267 267 268 269 270 272 274 274 274 273 273 274 275 275 276 276 277 277 278 278 278 279 279 279 280 280 281 282 282 283 283 283 283 283 283 284 284 284 284 284 285 286 285 284 280 276 277 282 285 287 290 291 292 291 288 284 281 278 275 276 279 282 283 286 287 286
264 265 265 265 265 264 263 263 264 264 265 266 267 267 267 267 268 268 268 268 268 268 268 269 270 272 274 274 274 274 274 275 275 275 276 276 276 277 277 278 279 279 279 280 280 281 281 282 282 282 282 282 282 282 282 282 283 283 283 283 283 282 281 280 278 273 270 269 271 276 278 280 284 287 286 283 280 278 278 280 284 286 287 287 288 288
263 264 265 265 265 265 265 264 264 264 264 265 266 266 267 267 268 268 268 268 268 268 268 268 268 270 271 271 272 273 274 274 275 275 276 276 276 277 277 278 278 278 279 279 280 280 280 280 280 281 281 281 281 281 281 281 281 281 282 282 281 280 279 279 279 277 274 270 270 273 275 277 281 283 283 283 282 282 283 284 285 286 286 286 286 286
262 262 264 265 265 266 266 266 266 265 265 265 265 265 266 266 267 267 267 267 267 267 267 267 267 268 269 270 271 273 273 274 274 275 275 275 276 277 277 278 278 278 279 279 279 279 279 280 279 279 279 280 280 280 281 281 281 282 282 282 282 281 281 281 280 281 280 277 275 276 277 279 280 280 280 281 280 280 281 282 282 283 284 285 285 286
262 263 264 265 266 266 267 268 269 269 269 269 268 268 268 269 269 269 269 269 269 269 269 269 269 270 271 272 273 273 273 273 273 274 275 275 276 276 277 277 277 278 278 278 278 278 278 279 279 279 279 280 280 281 281 282 283 283 283 283 283 282 282 281 281 281 281 281 281 281 281 282 282 281 281 281 281 280 280 281 281 281 281 283 284 284
263 263 264 266 267 268 269 269 270 271 271 271 271 271 270 270 270 270 270 270 270 271 271 271 271 271 272 273 273 272 272 272 273 273 274 275 275 275 275 275 275 275 276 276 276 277 277 278 278 279 280 280 281 281 282 282 283 283 283 283 283 283 282 283 283 282 281 282 283 284 284 284 284 283 283 282 282 282 283 283 283 283 283 283 283 284
263 263 264 265 266 267 269 269 269 270 270 271 271 272 272 272 271 271 271 271 270 271 271 271 272 272 271 270 271 271 271 272 273 274 274 274 275 274 274 273 273 274 274 275 275 276 277 277 278 278 279 279 280 280 281 281 281 281 282 282 282 282 282 282 283 282 282 283 285 285 285 285 285 285 284 283 283 284 284 284 285 284 284 284 284 284
263 263 263 263 263 264 266 267 267 268 268 269 270 271 272 273 273 273 273 273 273 273 272 272 273 272 270 269 269 270 271 272 273 274 273 273 273 273 273 273 273 273 274 274 275 276 277 277 277 278 278 278 279 279 279 279 279 279 279 280 281 281 281 281 280 280 282 284 284 282 280 281 282 282 283 284 284 284 284 285 285 285 284 285 285 285
265 264 264 263 262 263 264 265 266 267 267 268 269 270 271 272 273 274 275 276 276 275 274 275 276 273 271 271 270 271 272 273 273 273 273 272 272 272 273 273 273 274 274 274 275 275 276 276 277 277 277 278 278 278 278 279 279 279 279 279 280 280 281 281 281 282 282 281 278 276 274 275 276 277 279 281 281 282 283 284 284 284 285 285 285 285
268 267 266 266 265 265 265 266 267 268 269 269 270 270 271 271 272 273 275 276 276 275 276 279 278 275 274 275 274 274 274 273 273 273 274 274 274 274 274 274 273 273 273 273 273 273 274 274 274 275 275 275 276 276 277 277 278 279 279 279 279 280 280 281 281 282 281 279 277 276 275 275 275 276 278 279 280 281 282 282 283 284 284 285 285 285
269 269 268 268 267 267 267 267 267 268 269 270 271 272 273 273 273 273 273 274 273 274 276 277 276 276 276 276 276 276 276 276 276 276 276 277 277 277 277 277 277 276 276 275 275 274 274 274 274 274 274 274 275 275 275 276 277 278 279 279 280 280 281 281 281 281 281 280 280 279 279 278 278 279 280 281 281 282 282 282 283 283 284 284 285 286
271 270 270 269 269 269 269 269 269 269 269 271 272 273 274 275 276 275 275 275 275 275 276 275 275 276 277 276 276 277 277 277 278 278 278 278 278 279 279 279 279 279 279 279 279 278 278 278 278 277 277 277 277 277 278 278 278 279 279 280 281 281 282 282 282 282 282 281 281 281 281 281 281 281 282 282 282 282 283 283 283 283 283 284 285 286
272 272 272 272 271 272 272 271 271 271 272 272 273 273 274 275 275 275 276 277 277 278 278 277 276 277 277 277 277 278 278 278 278 278 278 278 278 278 279 279 279 280 280 281 281 281 281 281 281 280 280 280 280 280 280 280 280 280 281 281 281 282 282 282 282 282 282 282 281 281 281 281 281 281 281 281 281 281 281 281 281 282 282 283 284 285
273 273 274 274 274 274 274 274 274 273 273 273 273 274 274 273 273 274 275 276 277 277 278 277 277 278 278 278 278 278 279 279 279 279 279 279 279 279 279 280 280 280 280 281 281 281 282 282 282 282 281 281 281 281 281 281 281 281 281 282 282 282 282 282 282 282 282 282 282 281 281 281 281 281 281 280 280 280 280 280 280 281 281 282 283 284
273 274 274 274 274 275 274 275 275 275 274 275 275 275 274 274 274 274 275 275 275 276 276 277 277 277 278 278 278 278 278 278 279 279 280 280 281 281 281 281 281 281 281 281 281 282 282 282 282 282 282 282 282 281 281 281 281 282 282 282 282 282 282 282 283 283 283 282 282 282 281 281 281 281 280 280 280 280 280 280 280 280 281 282 283 283
274 274 274 274 275 275 275 275 275 276 277 278 277 276 275 275 275 276 275 275 275 276 276 276 277 277 277 276 276 276 277 277 277 278 279 279 280 280 280 281 281 281 281 281 281 281 281 281 281 281 281 281 281 282 282 282 282 282 282 283 283 283 283 283 283 283 283 283 283 282 282 282 281 281 281 281 281 280 280 280 280 281 281 282 283 283
274 274 274 275 275 275 275 275 276 277 278 278 277 277 278 278 277 277 276 276 276 276 276 276 276 276 276 276 276 276 276 276 277 277 277 278 278 278 279 279 279 279 279 279 279 279 279 279 280 280 280 281 281 281 282 282 283 283 283 283 283 283 284 284 283 283 283 283 283 283 283 282 282 281 281 281 280 280 280 281 281 281 282 282 283 284
274 275 275 276 276 275 275 275 276 277 277 277 277 278 278 278 278 278 277 277 277 277 277 277 277 276 276 276 276 276 276 277 277 277 278 278 278 278 278 278 278 278 279 279 279 279 279 279 280 280 280 281 281 281 282 282 283 283 284 284 284 284 284 284 284 284 284 283 283 283 283 283 282 282 282 281 281 281 281 281 282 282 283 283 284 284
274 275 275 276 276 276 277 276 276 277 277 277 277 277 277 277 277 277 278 278 278 278 278 278 278 277 277 277 277 278 278 278 278 279 279 279 279 279 279 279 279 280 280 280 280 281 281 281 282 282 282 282 282 283 283 283 283 283 284 284 284 284 284 284 284 284 284 283 283 283 283 282 282 282 282 282 281 281 281 281 282 283 283 283 284 284
275 275 275 276 276 277 277 277 277 277 277 277 277 277 277 277 276 276 277 277 277 278 278 278 278 278 279 279 279 279 279 280 280 280 280 280 280 280 280 280 281 281 281 282 282 282 283 283 283 284 284 284 284 284 284 284 284 284 284 284 284 284 284 284 284 283 283 283 283 282 282 281 281 280 280 280 281 281 281 281 282 282 283 283 283 283
274 275 275 276 276 277 277 277 277 277 278 278 277 277 277 276 276 276 276 276 277 277 277 278 278 279 279 279 279 280 280 280 281 281 281 281 281 281 281 281 282 282 282 283 283 283 284 284 284 284 284 284 285 285 285 285 285 285 285 285 284 284 284 284 283 283 282 282 281 281 280 280 280 280 279 280 280 280 281 281 282 282 282 282 282 283
274 274 275 276 276 277 276 276 277 277 278 277 277 276 276 276 276 276 276 276 277 277 277 278 278 278 278 278 278 279 279 280 280 280 281 281 281 282 282 282 282 282 282 283 283 283 284 284 284 285 285 285 285 285 285 285 286 285 285 285 285 284 284 283 283 282 282 281 280 280 279 279 279 279 280 280 280 280 281 281 281 281 282 282 282 283
274 274 274 275 275 276 276 276 276 277 277 276 276 276 275 275 275 275 275 276 276 277 277 277 277 277 278 278 278 279 279 280 279 280 280 281 281 282 282 282 282 283 283 283 284 284 284 285 285 285 285 285 286 286 286 286 286 285 285 285 284 284 283 283 282 282 281 281 280 280 279 279 279 279 280 280 280 280 280 280 281 281 282 282 283 283
273 274 274 274 275 275 275 275 275 275 276 276 275 274 274 274 274 274 274 275 275 275 275 276 276 277 277 278 279 279 279 279 279 279 279 280 280 281 281 282 282 283 283 283 284 284 284 285 285 285 285 285 285 285 285 285 285 285 285 284 284 283 282 282 282 281 281 280 280 280 280 280 280 280 280 279 279 279 279 279 280 280 281 282 283 283
272 273 273 274 275 275 275 275 275 275 275 275 275 274 274 274 274 274 274 274 274 275 275 276 276 277 277 278 278 278 278 278 279 279 279 279 279 280 280 281 281 282 282 283 283 284 284 284 284 284 284 284 284 284 284 284 283 283 283 283 283 282 282 282 282 281 280 280 280 280 280 280 279 279 278 278 278 278 278 279 279 280 281 281 282 282
272 273 274 274 275 275 276 276 277 277 277 276 276 276 275 275 275 275 275 275 275 275 276 276 277 277 278 278 278 278 278 278 278 279 279 279 280 280 280 281 281 282 282 283 283 283 284 284 284 284 283 283 283 282 282 282 282 282 281 281 281 281 282 282 282 281 281 281 281 281 280 279 279 278 278 277 277 277 277 278 279 279 280 280 280 281
273 274 275 275 275 276 277 278 278 278 278 278 277 277 277 276 276 276 276 276 277 277 277 278 278 278 279 278 278 279 279 279 279 280 280 281 281 281 281 282 282 283 283 283 284 284 284 284 284 284 283 283 282 282 281 281 281 281 281 281 281 281 281 281 281 281 281 281 281 281 281 280 279 278 278 277 276 276 277 277 278 279 279 279 280 280
274 275 275 276 276 276 277 277 278 278 277 277 277 277 277 277 277 277 277 278 278 279 279 279 280 280 280 280 280 280 280 281 281 281 282 282 282 283 283 284 284 284 285 285 285 285 284 284 284 284 284 283 282 282 282 282 282 282 281 281 281 281 281 281 281 281 281 281 281 281 281 280 280 279 278 277 277 277 277 277 277 278 278 278 279 280
275 275 275 276 276 276 276 276 276 276 276 276 276 276 276 277 277 278 278 279 280 280 280 281 281 281 281 281 281 281 282 282 282 283 283 283 284 284 285 285 285 285 286 286 285 285 285 285 285 284 283 283 282 282 283 283 283 283 283 282 282 282 282 282 282 281 281 281 280 280 280 280 280 280 280 279 278 278 277 276 276 276 277 277 278 278
274 275 275 275 275 275 275 275 275 275 275 275 276 276 277 277 278 278 279 280 280 281 281 281 281 281 281 281 282 282 283 283 284 284 284 284 285 285 285 285 285 285 285 285 285 285 285 284 284 284 283 283 283 283 283 283 283 283 283 283 283 283 283 283 282 282 281 281 280 280 280 280 280 280 280 280 279 278 277 276 276 276 276 276 276 277
274 274 275 275 274 274 274 274 274 275 275 276 277 277 278 278 279 279 280 280 280 281 281 281 281 281 281 282 283 283 283 284 284 284 285 285 285 285 285 285 285 285 285 285 285 284 284 284 284 284 283 283 283 283 283 283 283 283 283 284 284 283 283 282 282 281 281 281 281 281 281 280 280 280 279 279 278 278 277 277 276 276 275 275 276 275
275 275 275 274 273 273 274 274 274 274 275 276 277 278 278 279 279 280 280 281 281 281 281 281 281 282 283 283 284 284 284 285 285 286 286 286 286 285 285 285 285 285 285 285 285 285 284 284 284 283 283 283 283 283 283 283 284 284 284 283 283 282 282 282 282 282 282 282 282 282 282 281 280 279 278 277 277 276 276 276 276 276 276 276 276 275
274 274 274 274 273 273 273 273 274 275 276 277 278 279 279 280 280 280 280 281 281 281 281 281 282 283 284 284 285 285 285 286 286 287 287 286 286 286 285 285 286 286 285 285 285 285 284 284 283 283 283 283 283 283 283 283 283 283 282 282 282 281 281 282 282 283 283 283 282 282 281 280 279 278 277 276 276 276 276 275 275 276 276 276 275 273
273 274 273 273 272 272 273 274 275 276 277 278 278 279 279 280 280 281 281 281 281 281 282 283 284 284 284 285 285 286 286 287 287 287 287 287 286 286 286 287 286 286 286 285 285 285 284 283 283 283 283 283 283 283 283 282 282 281 281 281 281 281 282 282 282 282 282 282 281 281 280 279 278 277 277 276 276 276 276 275 275 275 275 274 272 271
Height
10788 10789 10790 10791 10791 10791 10792 10792 10792 10792 10793 10793 10794 10794 10793 10793 10793 10793 10793 10793 10793 10793 10793 10793 10792 10791 10791 10791 10791 10791 10790 10790 10790 10790 10790 10789 10789 10789 10789 10789 10789 10788 10788 10788 10787 10787 10787 10787 10787 10786 10786 10786 10786 10786 10786 10785 10784 10784 10783 10782 10782 10781 10781 10781 10781 10781 10780 10779 10778 10777 10776 10776 10775 10774 10774 10774 10773 10773 10773 10772 10771 10769 10768 10767 10767 10766
10786 10787 10788 10789 10789 10789 10789 10790 10790 10790 10791 10792 10793 10793 10792 10792 10792 10792 10792 10791 10791 10792 10793 10793 10792 10791 10790 10790 10790 10790 10790 10789 10789 10789 10788 10788 10788 10788 10788 10788 10787 10787 10786 10786 10785 10785 10785 10785 10784 10784 10784 10784 10784 10783 10783 10783 10782 10782 10781 10781 10780 10779 10779 10778 10778 10778 10777 10777 10776 10775 10774 10773 10772 10771 10771 10771 10770 10770 10770 10769 10768 10766 10765 10764 10763 10762
10783 10784 10785 10785 10786 10786 10787 10787 10788 10788 10788 10789 10791 10791 10791 10791 10790 10790 10790 10790 10790 10792 10792 10792 10791 10790 10789 10788 10788 10788 10789 10789 10788 10788 10787 10787 10787 10786 10786 10786 10785 10785 10785 10784 10784 10783 10783 10782 10782 10782 10782 10781 10781 10781 10780 10780 10780 10779 10779 10778 10778 10777 10777 10776 10775 10775 10774 10774 10774 10773 10772 10770 10769 10768 10767 10767 10766 10766 10765 10765 10764 10763 10761 10760 10759 10759
10781 10781 10781 10782 10783 10784 10785 10785 10785 10786 10786 10787 10788 10789 10789 10788 10788 10788 10789 10789 10789 10790 10790 10790 10789 10788 10788 10788 10787 10787 10787 10787 10787 10787 10787 10787 10786 10786 10785 10784 10784 10783 10783 10783 10782 10782 10781 10780 10779 10779 10779 10779 10778 10778 10777 10777 10777 10776 10776 10776 10775 10775 10774 10773 10773 10772 10771 10770 10770 10769 10769 10768 10766 10764 10763 10763 10762 10762 10761 10760 10759 10758 10757 10756 10755 10755
10778 10778 10779 10779 10780 10781 10782 10782 10783 10783 10784 10785 10786 10786 10786 10786 10786 10787 10788 10788 10788 10788 10788 10787 10787 10786 10785 10785 10786 10786 10786 10785 10786 10785 10785 10786 10786 10785 10784 10784 10783 10782 10782 10781 10781 10780 10779 10778 10777 10777 10776 10776 10776 10775 10775 10774 10774 10774 10773 10773 10773 10772 10771 10771 10770 10769 10768 10767 10766 10765 10764 10763 10762 10761 10759 10758 10758 10757 10756 10756 10755 10753 10752 10751 10751 10750
10775 10776 10776 10777 10778 10778 10778 10779 10780 10780 10781 10782 10782 10783 10783 10784 10784 10784 10785 10786 10785 10785 10785 10785 10784 10783 10782 10782 10783 10784 10783 10783 10784 10783 10783 10784 10784 10783 10782 10782 10782 10781 10780 10779 10779 10778 10778 10777 10775 10775 10774 10774 10774 10773 10773 10772 10772 10772 10771 10771 10770 10769 10768 10767 10766 10765 10765 10764 10762 10761 10760 10759 10758 10756 10754 10753 10752 10752 10751 10751 10750 10748 10747 10746 10746 10746
10772 10773 10773 10774 10774 10775 10775 10776 10777 10777 10777 10778 10779 10780 10780 10780 10781 10781 10781 10781 10781 10782 10782 10781 10781 10781 10779 10779 10780 10781 10780 10780 10781 10782 10782 10783 10782 10781 10780 10779 10779 10778 10778 10777 10776 10776 10775 10774 10773 10772 10772 10772 10771 10771 10771 10770 10770 10769 10769 10768 10767 10766 10765 10764 10762 10761 10760 10760 10759 10758 10756 10755 10753 10752 10750 10748 10747 10746 10745 10745 10744 10743 10742 10741 10740 10740
10769 10770 10769 10770 10771 10771 10771 10772 10774 10775 10774 10774 10776 10777 10776 10776 10777 10777 10777 10777 10777 10777 10777 10777 10778 10778 10777 10775 10775 10777 10777 10778 10779 10780 10780 10780 10779 10779 10778 10777 10776 10775 10774 10774 10773 10772 10772 10771 10770 10769 10769 10769 10769 10768 10768 10767 10767 10766 10765 10764 10763 10761 10760 10759 10758 10757 10756 10756 10756 10756 10756 10752 10749 10747 10745 10744 10742 10741 10739 10738 10739 10738 10736 10735 10735 10734
10764 10765 10766 10767 10768 10767 10767 10768 10771 10772 10771 10771 10772 10773 10772 10772 10773 10773 10774 10773 10773 10773 10771 10772 10774 10774 10773 10770 10770 10773 10775 10776 10778 10778 10778 10777 10777 10776 10775 10774 10773 10771 10770 10769 10768 10768 10768 10767 10766 10766 10765 10765 10765 10765 10764 10763 10762 10762 10761 10759 10758 10756 10755 10754 10753 10752 10753 10755 10754 10754 10756 10753 10747 10743 10741 10739 10737 10736 10734 10733 10733 10733 10731 10730 10729 10728
10759 10761 10763 10763 10763 10763 10763 10764 10766 10767 10767 10767 10768 10767 10767 10768 10769 10769 10769 10769 10769 10768 10766 10767 10769 10769 10768 10765 10765 10769 10772 10774 10775 10775 10775 10774 10773 10773 10772 10771 10770 10768 10766 10765 10764 10763 10763 10763 10762 10761 10761 10761 10761 10761 10760 10759 10757 10756 10755 10754 10752 10750 10749 10748 10748 10747 10749 10753 10753 10752 10754 10753 10747 10740 10736 10734 10733 10731 10730 10728 10727 10727 10726 10724 10722 10722
10755 10756 10758 10759 10759 10758 10758 10759 10760 10761 10761 10762 10762 10762 10762 10764 10764 10764 10764 10764 10765 10764 10762 10762 10764 10764 10761 10759 10761 10765 10767 10769 10770 10769 10769 10769 10769 10768 10768 10767 10766 10764 10762 10761 10759 10758 10757 10757 10757 10757 10756 10756 10756 10756 10755 10753 10752 10750 10749 10748 10746 10744 10743 10742 10742 10741 10741 10744 10747 10749 10750 10749 10745 10737 10730 10729 10728 10726 10724 10722 10721 10721 10719 10717 10715 10715
10750 10750 10752 10754 10753 10753 10752 10752 10754 10755 10756 10757 10756 10756 10757 10759 10759 10760 10760 10760 10760 10759 10758 10758 10759 10758 10755 10754 10756 10760 10762 10763 10763 10763 10763 10764 10764 10763 10762 10761 10760 10759 10757 10756 10754 10753 10752 10751 10751 10751 10750 10750 10750 10750 10749 10748 10746 10744 10743 10742 10740 10738 10737 10736 10735 10734 10733 10733 10735 10739 10741 10741 10738 10730 10725 10723 10722 10719 10717 10715 10714 10713 10711 10709 10708 10707
10743 10743 10745 10747 10747 10747 10746 10746 10748 10749 10749 10750 10750 10751 10753 10754 10755 10755 10755 10756 10756 10754 10753 10753 10753 10752 10750 10750 10752 10754 10756 10757 10757 10757 10758 10759 10758 10757 10756 10755 10754 10752 10751 10750 10748 10747 10746 10745 10744 10744 10744 10743 10743 10743 10743 10742 10740 10738 10736 10735 10734 10732 10731 10730 10729 10727 10726 10724 10724 10725 10727 10727 10726 10721 10717 10715 10713 10711 10709 10707 10707 10706 10703 10701 10700 10699
10736 10737 10740 10742 10742 10743 10742 10740 10741 10742 10743 10744 10744 10746 10748 10748 10749 10750 10750 10751 10751 10748 10748 10749 10749 10746 10745 10747 10749 10750 10750 10750 10750 10751 10752 10753 10752 10750 10749 10748 10747 10746 10745 10744 10742 10741 10739 10738 10737 10737 10738 10738 10736 10736 10736 10735 10734 10733 10731 10730 10729 10728 10726 10724 10723 10721 10719 10717 10715 10714 10714 10714 10713 10711 10707 10705 10704 10702 10700 10699 10699 10699 10697 10694 10692 10692
10731 10731 10735 10737 10738 10738 10736 10734 10734 10736 10737 10737 10738 10740 10741 10741 10743 10744 10744 10745 10746 10744 10744 10744 10744 10742 10742 10744 10746 10746 10744 10743 10743 10745 10746 10746 10745 10743 10742 10741 10741 10740 10739 10738 10737 10735 10733 10732 10731 10732 10733 10732 10729 10729 10730 10729 10729 10728 10726 10725 10725 10723 10721 10719 10717 10715 10713 10711 10710 10709 10707 10706 10704 10702 10699 10697 10696 10694 10692 10690 10689 10689 10689 10686 10685 10684
10726 10725 10728 10731 10732 10732 10731 10729 10729 10729 10730 10731 10733 10733 10733 10735 10737 10737 10738 10739 10740 10740 10739 10739 10737 10737 10738 10741 10743 10742 10739 10737 10737 10738 10739 10739 10738 10736 10735 10734 10734 10734 10733 10732 10731 10730 10728 10727 10726 10725 10726 10725 10721 10721 10723 10723 10722 10721 10720 10720 10719 10717 10715 10713 10712 10711 10709 10707 10706 10705 10702 10699 10698 10695 10692 10690 10691 10691 10686 10682 10679 10678 10678 10677 10676 10676
10721 10720 10722 10724 10725 10726 10725 10724 10724 10723 10723 10725 10726 10726 10727 10729 10730 10731 10732 10733 10734 10734 10734 10733 10731 10731 10733 10736 10738 10736 10733 10732 10732 10732 10732 10732 10730 10728 10727 10728 10727 10727 10726 10725 10724 10723 10722 10720 10719 10719 10718 10717 10715 10714 10714 10715 10715 10714 10714 10713 10711 10710 10708 10708 10708 10708 10706 10703 10699 10698 10695 10691 10687 10685 10683 10684 10689 10691 10685 10677 10673 10671 10670 10670 10668 10668
10715 10714 10715 10717 10718 10718 10719 10718 10717 10718 10718 10719 10719 10720 10721 10722 10723 10724 10725 10726 10728 10728 10729 10728 10726 10725 10726 10728 10729 10728 10726 10726 10726 10726 10726 10725 10723 10721 10720 10720 10720 10719 10718 10717 10716 10715 10714 10713 10711 10711 10710 10710 10708 10707 10706 10706 10706 10705 10706 10705 10703 10702 10700 10700 10701 10700 10697 10693 10689 10686 10684 10679 10676 10675 10675 10677 10681 10683 10678 10672 10668 10665 10664 10662 10661 10660
10710 10708 10709 10710 10710 10710 10711 10711 10711 10712 10713 10713 10713 10714 10715 10715 10715 10717 10717 10719 10721 10722 10723 10723 10723 10722 10721 10720 10720 10719 10718 10718 10719 10719 10719 10718 10716 10715 10714 10712 10711 10711 10710 10709 10708 10707 10706 10706 10704 10703 10703 10702 10701 10700 10698 10698 10698 10697 10697 10697 10696 10694 10691 10690 10691 10689 10685 10682 10678 10675 10672 10670 10669 10668 10668 10669 10670 10670 10667 10663 10660 10658 10656 10654 10652 10651
10704 10703 10702 10703 10703 10702 10703 10704 10706 10707 10707 10708 10708 10708 10708 10708 10709 10709 10709 10711 10713 10714 10716 10718 10718 10718 10716 10714 10712 10711 10711 10711 10710 10711 10710 10709 10708 10708 10707 10706 10704 10703 10703 10702 10701 10700 10699 10698 10698 10696 10695 10694 10693 10692 10691 10690 10690 10689 10689 10689 10688 10686 10684 10683 10682 10680 10678 10676 10674 10670 10667 10665 10664 10662 10661 10662 10661 10659 10656 10654 10651 10649 10648 10646 10643 10641
10698 10697 10697 10696 10696 10695 10695 10695 10698 10700 10700 10702 10702 10701 10701 10701 10702 10702 10702 10704 10706 10706 10708 10710 10712 10712 10709 10707 10707 10705 10704 10703 10703 10702 10701 10701 10701 10700 10699 10698 10697 10695 10695 10695 10694 10693 10691 10689 10689 10689 10687 10686 10685 10683 10682 10682 10682 10681 10681 10681 10680 10679 10677 10675 10674 10672 10671 10671 10670 10667 10663 10659 10656 10654 10653 10653 10652 10650 10647 10644 10642 10640 10637 10635 10632 10629
10691 10692 10691 10691 10689 10689 10689 10689 10690 10691 10692 10693 10693 10693 10693 10693 10693 10693 10693 10695 10697 10698 10699 10701 10705 10707 10702 10699 10700 10698 10696 10695 10695 10695 10694 10694 10694 10693 10692 10691 10689 10688 10686 10686 10685 10684 10683 10681 10680 10680 10679 10678 10677 10675 10674 10674 10673 10672 10672 10672 10671 10671 10670 10668 10667 10666 10665 10664 10663 10660 10656 10652 10646 10642 10641 10641 10639 10638 10635 10633 10632 10630 10627 10624 10621 10618
10685 10686 10686 10686 10684 10682 10682 10684 10683 10683 10683 10684 10683 10684 10684 10684 10685 10684 10685 10687 10688 10689 10690 10691 10697 10701 10696 10692 10691 10689 10688 10687 10687 10688 10687 10686 10686 10686 10685 10684 10683 10682 10680 10678 10678 10677 10676 10675 10673 10672 10671 10670 10669 10667 10666 10666 10664 10663 10662 10662 10663 10662 10662 10663 10662 10661 10660 10659 10656 10652 10648 10643 10635 10629 10628 10628 10626 10624 10623 10620 10619 10618 10616 10613 10610 10607
10680 10681 10682 10681 10680 10677 10676 10677 10677 10677 10676 10675 10675 10675 10675 10676 10676 10675 10676 10678 10680 10683 10682 10682 10690 10694 10689 10685 10682 10679 10680 10680 10679 10681 10680 10679 10678 10677 10676 10676 10675 10675 10674 10673 10672 10671 10670 10669 10667 10666 10664 10662 10661 10660 10658 10658 10657 10656 10653 10652 10653 10654 10654 10657 10657 10655 10656 10657 10653 10648 10642 10634 10623 10616 10614 10614 10614 10613 10611 10608 10606 10604 10602 10600 10597 10595
10674 10675 10677 10676 10675 10673 10671 10670 10671 10671 10670 10670 10669 10668 10667 10667 10666 10667 10667 10668 10671 10674 10672 10673 10682 10684 10677 10676 10675 10672 10673 10673 10672 10672 10672 10670 10670 10668 10667 10668 10668 10668 10668 10667 10666 10664 10663 10662 10660 10659 10657 10655 10654 10652 10650 10649 10649 10648 10647 10644 10645 10644 10644 10647 10648 10648 10651 10655 10651 10642 10634 10624 10613 10604 10602 10603 10603 10602 10600 10597 10595 10592 10589 10587 10585 10582
10667 10668 10670 10670 10670 10669 10667 10665 10666 10665 10664 10665 10664 10662 10661 10660 10659 10658 10658 10659 10662 10662 10662 10667 10673 10670 10665 10666 10668 10666 10666 10666 10664 10663 10661 10661 10661 10661 10660 10660 10660 10660 10660 10659 10659 10657 10655 10654 10652 10651 10649 10647 10646 10644 10642 10640 10639 10638 10638 10637 10636 10635 10634 10633 10635 10637 10641 10644 10640 10630 10622 10615 10605 10596 10593 10594 10594 10593 10590 10587 10584 10580 10577 10574 10571 10568
10659 10660 10662 10662 10663 10663 10662 10660 10660 10659 10658 10658 10657 10656 10654 10653 10653 10652 10651 10652 10651 10649 10655 10662 10659 10656 10657 10657 10657 10658 10657 10656 10656 10654 10652 10651 10651 10651 10651 10650 10651 10651 10651 10651 10650 10648 10647 10645 10644 10643 10641 10639 10637 10635 10633 10631 10629 10628 10627 10627 10626 10626 10625 10622 10623 10626 10626 10624 10622 10617 10611 10606 10597 10590 10587 10585 10584 10582 10580 10577 10573 10569 10565 10560 10556 10554
10651 10652 10654 10654 10654 10655 10655 10654 10653 10653 10652 10651 10650 10649 10646 10644 10645 10645 10644 10644 10640 10640 10651 10656 10645 10643 10649 10648 10646 10647 10646 10644 10644 10644 10643 10641 10640 10639 10639 10639 10638 10638 10638 10639 10638 10637 10636 10634 10633 10632 10631 10629 10628 10626 10624 10622 10621 10619 10617 10617 10616 10615 10615 10613 10612 10613 10612 10607 10605 10603 10599 10593 10587 10582 10578 10575 10572 10570 10568 10564 10560 10557 10552 10547 10542 10539
10641 10643 10644 10645 10646 10647 10647 10646 10645 10645 10646 10645 10644 10642 10639 10635 10634 10634 10634 10633 10630 10632 10642 10644 10636 10635 10639 10637 10636 10638 10636 10634 10633 10632 10631 10630 10629 10628 10627 10627 10626 10624 10623 10623 10623 10623 10623 10622 10621 10620 10618 10617 10616 10614 10613 10611 10609 10608 10606 10605 10604 10603 10602 10601 10600 10599 10599 10596 10592 10588 10584 10579 10574 10570 10566 10562 10559 10556 10553 10550 10546 10542 10539 10535 10529 10524
10630 10632 10633 10634 10637 10639 10638 10636 10636 10637 10639 10639 10637 10636 10633 10629 10625 10624 10624 10622 10619 10622 10627 10629 10627 10627 10626 10625 10626 10626 10625 10624 10623 10622 10621 10619 10619 10618 10617 10616 10615 10614 10612 10611 10609 10608 10608 10607 10607 10606 10605 10604 10602 10601 10599 10598 10596 10595 10593 10592 10591 10589 10588 10588 10586 10585 10584 10583 10580 10576 10572 10567 10562 10557 10553 10550 10546 10543 10540 10537 10533 10529 10525 10522 10517 10512
10621 10621 10622 10623 10626 10630 10628 10625 10626 10627 10629 10631 10630 10628 10625 10620 10617 10617 10618 10615 10611 10611 10613 10614 10616 10617 10615 10614 10615 10614 10613 10612 10611 10611 10610 10609 10608 10607 10606 10605 10604 10603 10602 10601 10599 10597 10595 10593 10592 10591 10590 10589 10587 10586 10585 10583 10582 10581 10579 10578 10577 10575 10574 10572 10571 10570 10568 10567 10565 10562 10559 10555 10550 10545 10540 10538 10535 10531 10527 10524 10520 10516 10512 10508 10504 10499
10611 10611 10612 10611 10615 10621 10618 10613 10614 10614 10617 10622 10622 10619 10614 10610 10609 10610 10610 10608 10605 10603 10602 10603 10606 10606 10605 10604 10603 10603 10602 10601 10599 10598 10597 10597 10597 10595 10594 10592 10591 10590 10589 10588 10587 10585 10583 10581 10578 10576 10575 10573 10572 10571 10569 10568 10567 10566 10564 10563 10562 10561 10559 10557 10556 10554 10552 10550 10547 10545 10544 10540 10536 10532 10527 10523 10520 10516 10512 10508 10505 10501 10498 10495 10491 10485
10602 10602 10602 10600 10605 10611 10609 10604 10603 10602 10607 10613 10610 10605 10603 10600 10599 10599 10598 10598 10596 10594 10594 10594 10595 10595 10594 10594 10593 10592 10591 10590 10589 10588 10587 10586 10585 10583 10581 10580 10578 10577 10575 10574 10573 10571 10569 10567 10565 10562 10560 10558 10556 10555 10553 10552 10552 10550 10549 10548 10547 10545 10544 10542 10540 10538 10535 10533 10529 10526 10526 10523 10519 10516 10512 10508 10504 10500 10495 10491 10488 10484 10482 10480 10477 10472
10592 10591 10591 10591 10595 10599 10599 10596 10593 10594 10600 10602 10596 10593 10593 10589 10587 10586 10585 10585 10585 10584 10584 10584 10583 10584 10583 10582 10582 10582 10581 10579 10578 10577 10577 10576 10574 10572 10570 10568 10566 10564 10562 10561 10559 10557 10556 10554 10552 10550 10548 10545 10543 10541 10539 10538 10536 10534 10533 10531 10530 10529 10527 10526 10524 10521 10518 10516 10511 10507 10506 10504 10500 10497 10494 10490 10487 10483 10478 10473 10469 10467 10465 10464 10461 10457
10582 10580 10579 10581 10582 10585 10588 10586 10584 10587 10591 10589 10584 10585 10583 10576 10573 10572 10571 10572 10573 10572 10571 10571 10570 10570 10570 10569 10570 10571 10569 10567 10565 10564 10564 10563 10561 10559 10557 10554 10552 10550 10548 10546 10544 10542 10541 10539 10537 10536 10534 10532 10530 10527 10526 10524 10522 10520 10517 10515 10513 10511 10509 10507 10505 10502 10500 10498 10494 10489 10486 10483 10480 10476 10473 10469 10467 10464 10460 10455 10451 10449 10447 10445 10443 10441
10571 10569 10569 10570 10569 10572 10575 10575 10573 10576 10581 10580 10576 10575 10571 10565 10562 10560 10558 10559 10559 10557 10556 10556 10555 10555 10556 10556 10556 10557 10557 10556 10553 10550 10549 10548 10546 10544 10542 10539 10536 10533 10531 10529 10528 10527 10525 10523 10521 10520 10518 10516 10513 10511 10509 10508 10506 10504 10502 10499 10496 10494 10491 10489 10486 10483 10481 10478 10476 10472 10468 10464 10461 10457 10453 10449 10446 10444 10441 10438 10435 10433 10431 10429 10427 10424
10559 10558 10558 10558 10559 10561 10561 10561 10561 10563 10568 10570 10566 10562 10559 10555 10551 10549 10546 10546 10548 10546 10543 10541 10540 10540 10541 10541 10541 10541 10542 10543 10541 10535 10532 10532 10530 10527 10525 10523 10519 10517 10514 10512 10510 10510 10508 10506 10504 10502 10500 10497 10494 10492 10490 10488 10487 10486 10484 10481 10478 10475 10473 10470 10468 10465 10463 10460 10456 10453 10449 10446 10442 10439 10436 10433 10429 10427 10424 10422 10420 10418 10415 10414 10412 10410
10548 10547 10546 10546 10549 10550 10548 10547 10549 10552 10556 10558 10553 10548 10546 10542 10538 10536 10533 10533 10536 10534 10531 10529 10528 10527 10528 10528 10527 10527 10527 10527 10528 10521 10514 10514 10514 10511 10508 10506 10502 10500 10498 10496 10493 10492 10490 10488 10486 10484 10482 10479 10476 10472 10469 10468 10467 10466 10463 10460 10457 10455 10453 10450 10448 10447 10444 10441 10437 10434 10430 10426 10424 10422 10420 10418 10415 10412 10409 10407 10404 10402 10399 10398 10398 10396
10537 10536 10536 10536 10538 10538 10534 10533 10537 10541 10544 10544 10540 10536 10534 10529 10524 10522 10519 10521 10524 10521 10517 10517 10515 10514 10515 10515 10514 10515 10513 10513 10515 10509 10499 10497 10497 10495 10491 10489 10486 10483 10481 10479 10477 10475 10474 10471 10469 10467 10464 10460 10457 10452 10449 10447 10447 10444 10441 10437 10436 10435 10432 10429 10427 10426 10423 10420 10418 10415 10411 10409 10407 10406 10404 10402 10399 10396 10394 10391 10388 10386 10384 10383 10382 10382
10526 10525 10525 10526 10527 10525 10521 10520 10526 10530 10531 10530 10528 10525 10521 10515 10511 10508 10507 10510 10513 10508 10503 10503 10501 10499 10500 10500 10500 10501 10499 10497 10499 10497 10489 10483 10481 10479 10474 10470 10468 10465 10463 10460 10458 10456 10455 10453 10451 10449 10446 10441 10436 10431 10428 10426 10425 10422 10419 10415 10415 10414 10410 10408 10408 10406 10403 10399 10397 10395 10394 10393 10392 10390 10388 10386 10384 10381 10378 10375 10372 10370 10368 10368 10367 10367
10514 10512 10512 10514 10514 10512 10508 10507 10512 10517 10518 10516 10513 10509 10505 10501 10498 10496 10495 10497 10497 10494 10491 10490 10488 10486 10486 10486 10486 10486 10484 10480 10480 10481 10477 10471 10467 10464 10459 10454 10450 10448 10445 10442 10440 10437 10436 10435 10433 10431 10428 10424 10417 10412 10408 10405 10403 10401 10398 10396 10395 10392 10389 10390 10390 10387 10384 10381 10378 10377 10377 10376 10375 10374 10372 10370 10367 10365 10362 10359 10357 10356 10354 10354 10354 10353
10503 10499 10500 10503 10500 10496 10494 10493 10496 10502 10504 10501 10495 10490 10489 10486 10482 10480 10481 10480 10479 10479 10477 10476 10475 10474 10474 10474 10471 10469 10467 10464 10461 10460 10460 10457 10452 10449 10445 10440 10435 10432 10429 10426 10423 10419 10416 10417 10417 10415 10412 10406 10400 10394 10390 10387 10386 10384 10381 10379 10376 10372 10371 10372 10371 10367 10365 10364 10362 10362 10361 10359 10358 10357 10356 10354 10351 10349 10347 10344 10342 10342 10341 10340 10340 10339
10490 10487 10489 10491 10486 10481 10480 10480 10481 10485 10487 10483 10478 10474 10471 10468 10464 10463 10464 10463 10463 10463 10462 10461 10461 10459 10458 10457 10454 10450 10448 10447 10444 10442 10441 10440 10437 10431 10427 10423 10419 10415 10413 10410 10406 10402 10397 10397 10398 10397 10394 10389 10382 10376 10372 10370 10370 10369 10366 10363 10359 10356 10355 10354 10352 10349 10348 10346 10345 10344 10343 10342 10341 10340 10340 10338 10336 10335 10333 10330 10328 10328 10328 10327 10326 10326
10479 10476 10477 10477 10472 10467 10468 10468 10466 10467 10468 10465 10461 10455 10451 10449 10447 10446 10447 10447 10447 10446 10446 10446 10445 10441 10437 10435 10434 10431 10429 10427 10426 10424 10422 10420 10418 10413 10408 10405 10400 10396 10393 10391 10389 10385 10380 10377 10377 10377 10374 10370 10363 10357 10353 10352 10353 10353 10350 10347 10344 10342 10341 10339 10336 10334 10332 10329 10328 10326 10324 10324 10324 10324 10324 10323 10321 10320 10319 10317 10316 10315 10313 10312 10312 10312
10466 10464 10463 10462 10458 10455 10456 10456 10452 10449 10448 10446 10442 10437 10433 10432 10431 10430 10431 10432 10431 10430 10429 10429 10426 10422 10416 10413 10411 10411 10410 10407 10406 10405 10402 10399 10396 10393 10390 10386 10381 10377 10374 10371 10369 10365 10361 10359 10358 10357 10354 10349 10343 10339 10337 10336 10335 10335 10333 10331 10328 10327 10326 10323 10321 10319 10316 10314 10312 10310 10309 10308 10308 10307 10308 10308 10307 10307 10306 10305 10303 10302 10300 10299 10299 10299
10451 10449 10447 10446 10445 10442 10442 10442 10437 10430 10427 10426 10425 10422 10420 10418 10416 10414 10415 10417 10416 10414 10412 10409 10406 10403 10398 10393 10391 10390 10389 10387 10386 10385 10382 10378 10376 10375 10371 10366 10362 10359 10356 10353 10350 10347 10344 10343 10341 10337 10334 10330 10325 10323 10321 10320 10319 10318 10317 10315 10312 10311 10310 10308 10306 10304 10301 10299 10297 10296 10295 10295 10293 10293 10293 10293 10293 10293 10293 10292 10291 10290 10288 10287 10287 10288
10435 10434 10432 10431 10431 10428 10426 10427 10421 10410 10406 10408 10409 10410 10409 10405 10401 10400 10401 10403 10401 10398 10394 10390 10386 10383 10379 10376 10373 10372 10371 10370 10368 10366 10364 10362 10360 10357 10353 10349 10346 10343 10339 10335 10333 10331 10329 10326 10323 10320 10316 10313 10310 10308 10306 10304 10303 10302 10301 10299 10297 10296 10294 10292 10291 10288 10286 10285 10284 10283 10283 10282 10281 10280 10280 10279 10279 10279 10278 10278 10278 10278 10277 10276 10277 10277
10419 10419 10417 10415 10415 10413 10412 10411 10402 10390 10389 10395 10396 10395 10395 10390 10386 10386 10387 10387 10385 10381 10377 10373 10367 10363 10361 10359 10357 10355 10355 10355 10352 10348 10347 10347 10345 10340 10336 10333 10331 10328 10324 10321 10318 10315 10313 10311 10308 10304 10301 10298 10296 10295 10292 10289 10288 10287 10286 10285 10284 10282 10279 10277 10276 10274 10273 10273 10272 10271 10271 10271 10270 10269 10268 10267 10266 10265 10265 10266 10266 10266 10266 10267 10267 10268
10403 10402 10399 10398 10398 10398 10397 10393 10381 10373 10381 10388 10383 10378 10379 10377 10374 10372 10371 10368 10365 10362 10359 10355 10350 10347 10346 10344 10341 10338 10337 10337 10336 10332 10331 10331 10327 10322 10320 10318 10316 10314 10311 10307 10303 10301 10299 10297 10293 10289 10286 10283 10282 10282 10280 10277 10275 10273 10271 10271 10270 10268 10265 10263 10263 10262 10261 10261 10261 10260 10260 10259 10259 10257 10256 10255 10254 10253 10254 10254 10255 10255 10256 10257 10257 10257
10385 10383 10382 10381 10381 10380 10378 10374 10364 10363 10374 10380 10371 10362 10362 10360 10357 10357 10358 10355 10349 10344 10340 10337 10337 10336 10333 10328 10323 10320 10319 10320 10320 10317 10316 10313 10309 10306 10305 10304 10302 10299 10295 10292 10290 10288 10285 10282 10278 10274 10272 10270 10269 10269 10267 10265 10263 10260 10258 10257 10256 10255 10254 10253 10252 10251 10251 10251 10250 10249 10249 10248 10247 10246 10245 10244 10244 10243 10243 10244 10245 10246 10246 10246 10247 10246
10368 10368 10367 10362 10359 10360 10363 10360 10354 10354 10364 10369 10361 10351 10346 10343 10338 10339 10342 10339 10333 10328 10325 10323 10323 10323 10320 10315 10309 10304 10302 10305 10305 10303 10301 10298 10294 10291 10290 10289 10287 10284 10281 10278 10277 10274 10270 10268 10265 10262 10260 10259 10258 10257 10255 10253 10250 10248 10247 10246 10245 10244 10244 10243 10242 10241 10241 10240 10239 10239 10238 10237 10236 10235 10235 10235 10235 10234 10234 10234 10236 10237 10236 10235 10235 10235